Temperature
20 20 20 19 19 19 19 19 18 18 18 17 17 17 16 16 16 16 16 16 15 15 15 15 15 15 15 15 15 15 15 15 15 15 15 15 15 15 15 15 15 15 15
20 20 20 20 19 19 19 19 18 18 18 17 17 17 16 16 16 16 16 16 15 15 15 15 15 15 15 15 14 14 15 15 15 15 15 15 15 15 15 15 15 14 15
20 20 20 20 19 19 19 19 18 18 18 18 17 17 16 16 16 16 16 16 15 15 15 15 15 15 15 14 14 14 14 14 14 14 14 14 14 14 15 14 14 14 14
20 20 20 20 20 19 19 19 19 18 18 18 17 17 17 16 16 16 16 16 15 15 15 15 15 15 14 14 14 14 14 14 14 14 14 14 13 13 14 14 14 14 14
20 20 20 20 20 19 19 19 19 18 18 18 17 17 17 16 16 16 16 15 15 15 15 15 15 15 14 14 14 14 14 14 13 13 13 13 13 13 13 13 14 14 14
21 21 20 20 20 19 19 19 19 18 18 18 17 17 17 17 16 16 16 16 15 15 15 15 15 14 14 14 14 14 14 13 13 13 13 13 13 13 13 13 13 13 13
21 21 20 20 20 20 19 19 19 18 18 18 17 17 17 17 16 16 16 16 15 15 15 15 14 14 14 14 14 14 14 13 13 13 13 13 13 13 13 12 12 12 13
21 21 21 20 20 20 19 19 19 18 18 18 17 17 17 17 16 16 16 15 15 15 15 15 14 14 14 14 14 13 13 13 13 13 13 13 13 12 12 12 12 12 12
21 21 21 21 20 20 19 19 19 18 18 18 17 17 17 17 16 16 16 15 15 15 15 14 14 14 14 14 13 13 13 13 13 13 13 13 12 12 12 12 12 12 12
21 21 21 21 20 20 20 19 19 18 18 18 17 17 17 17 16 16 16 15 15 15 15 14 14 14 14 13 13 13 13 13 13 12 12 12 12 12 12 12 12 12 12
21 21 21 21 20 20 19 19 19 18 18 18 17 17 17 16 16 16 16 15 15 15 15 14 14 14 13 13 13 13 13 12 12 12 12 12 12 12 12 12 12 12 11
22 21 21 21 20 20 19 19 19 18 18 18 17 17 17 16 16 16 16 15 15 15 14 14 14 14 13 13 13 13 12 12 12 12 12 12 12 12 12 11 11 11 11
21 21 21 20 20 20 20 19 19 18 18 18 17 17 17 16 16 16 16 15 15 15 14 14 14 13 13 13 13 13 12 12 12 12 12 12 11 11 11 11 11 11 11
21 21 21 20 20 20 19 19 19 18 18 17 17 17 17 16 16 16 15 15 15 14 14 14 14 13 13 13 12 12 12 12 12 12 11 11 11 11 11 11 11 11 11
21 21 21 20 20 19 19 19 18 18 18 17 17 17 17 16 16 16 15 15 14 14 14 14 13 13 13 12 12 12 12 12 11 11 11 11 11 11 11 10 10 10 10
21 21 21 20 20 19 19 19 18 18 17 17 17 17 16 16 16 16 15 15 14 14 14 14 13 13 12 12 12 12 12 11 11 11 11 11 11 11 11 10 10 10 10
21 21 21 20 20 20 19 19 18 18 17 17 17 16 16 16 16 15 15 15 14 14 14 13 13 13 12 12 12 12 11 11 11 11 11 11 10 10 10 10 10 10 10
21 21 21 20 20 20 19 19 18 18 17 17 17 16 16 16 15 15 15 14 14 14 14 13 13 13 12 12 12 11 11 11 11 11 10 10 10 10 10 10 10 10 10
21 21 21 20 20 19 19 18 18 17 17 17 17 16 16 16 15 15 15 14 14 14 13 13 13 12 12 12 11 11 11 11 11 11 10 10 10 10 10 9 9 9 9
21 21 20 20 19 19 19 18 18 17 17 17 17 16 16 16 15 15 14 14 14 13 13 13 13 12 12 12 11 11 11 11 11 10 10 10 10 10 9 9 9 9 9
20 20 20 19 19 19 18 18 18 17 17 17 17 16 16 16 15 15 14 14 13 13 13 12 12 12 12 11 11 11 10 10 10 10 10 10 9 9 9 9 9 9 8
19 19 19 19 19 18 18 18 18 18 17 17 16 16 16 15 15 14 14 14 13 13 13 12 12 12 11 11 11 11 10 10 10 10 10 9 9 9 9 9 9 8 8
19 19 18 18 18 18 17 17 17 17 17 16 16 16 15 15 14 14 14 13 13 13 12 12 12 12 11 11 11 10 10 10 10 10 9 9 9 9 9 8 8 8 8
18 18 18 18 17 17 17 17 17 16 16 16 16 15 15 15 14 14 13 13 13 12 12 12 12 11 11 11 11 10 10 10 9 9 9 9 9 8 8 8 8 8 8
17 17 17 17 17 16 16 16 16 16 15 15 15 15 14 14 14 13 13 13 13 12 12 12 11 11 11 11 11 10 10 10 9 9 9 8 8 8 8 8 8 8 7
17 16 16 16 16 16 15 15 15 15 15 15 14 14 14 13 13 13 13 12 12 12 11 11 11 11 11 10 10 10 10 9 9 8 8 8 8 8 8 8 7 7 7
Wind_Speed
7 8 8 8 7 7 7 7 6 5 4 3 3 3 2 2 2 4 7 8 8 9 8 5 5 5 4 4 5 4 5 5 4 4 4 5 5 6 5 4 4 6 7
7 7 8 8 8 8 8 7 7 6 5 3 3 3 3 2 1 3 5 7 8 8 7 5 4 4 4 6 6 4 3 4 5 3 3 4 5 5 6 5 5 6 6
12 10 9 8 9 9 9 8 7 6 5 5 4 4 4 3 3 3 2 4 6 8 7 6 5 4 3 4 4 4 4 4 4 3 3 3 1 3 4 5 5 6 5
11 10 10 9 9 9 8 8 7 6 5 6 6 6 4 3 1 1 1 3 5 6 7 7 6 5 3 4 4 4 3 4 3 3 3 2 2 1 3 4 5 6 5
13 12 11 11 10 9 9 8 8 6 5 6 7 7 5 3 2 1 2 2 3 5 6 6 6 4 3 4 4 5 4 3 3 2 2 3 3 2 2 2 5 5 4
12 11 10 9 8 8 8 8 8 6 5 6 6 7 7 5 4 3 2 1 2 3 4 5 5 4 3 3 3 4 5 4 4 3 3 2 2 1 1 0 2 3 4
12 12 12 11 10 10 9 9 9 7 6 6 6 6 6 6 5 4 2 1 1 1 2 3 3 3 3 4 4 4 4 4 4 3 2 2 1 0 1 1 1 2 3
13 14 14 13 12 12 11 10 10 7 6 6 5 5 5 4 4 4 3 3 2 1 0 2 3 3 4 4 4 4 3 3 4 4 3 2 2 1 1 1 1 2 3
14 13 13 13 12 12 12 12 11 8 7 7 6 5 5 5 4 4 3 2 2 1 2 3 3 3 4 4 4 3 3 3 3 3 3 3 2 2 2 1 1 2 1
11 12 12 12 12 12 10 10 10 9 7 7 6 6 5 5 5 4 4 2 1 2 2 2 3 3 3 4 3 3 3 4 3 2 3 3 2 3 2 2 1 1 2
13 12 12 11 11 10 10 9 9 8 7 7 6 6 5 5 5 4 3 3 2 2 3 2 3 2 3 3 3 3 3 4 3 3 3 3 3 3 3 2 2 2 1
12 11 11 10 10 10 10 10 9 8 8 7 7 7 6 5 5 4 3 3 3 2 3 3 3 3 2 2 3 2 3 2 3 3 3 3 3 3 3 2 2 1 0
9 9 9 11 11 11 10 10 9 9 8 8 8 7 6 6 5 5 4 4 3 3 3 3 3 2 2 2 2 2 2 2 1 1 1 2 2 2 2 2 2 2 2
10 10 10 10 11 11 11 10 10 9 9 8 8 8 8 7 6 5 5 4 4 4 3 3 2 2 2 1 1 2 2 2 2 2 1 1 1 1 1 1 1 1 2
9 11 11 10 10 10 10 10 10 9 9 9 9 9 8 7 6 6 5 4 4 4 3 3 2 1 1 1 2 1 2 2 2 2 2 2 3 2 1 1 1 1 1
11 11 11 11 11 11 11 10 10 10 9 10 9 8 8 7 7 6 5 5 4 3 3 3 2 1 0 1 1 2 1 0 1 1 2 3 3 4 5 4 2 1 1
11 11 11 12 12 12 11 12 11 10 10 10 9 9 8 8 7 7 6 5 4 4 3 2 2 2 2 2 1 1 1 0 1 1 1 2 3 4 2 4 5 4 5
10 11 10 10 9 9 9 10 9 10 10 10 9 9 9 8 7 7 6 5 4 4 4 4 3 3 3 3 2 1 1 0 1 2 2 1 3 3 2 2 3 4 4
8 9 10 9 8 8 9 9 9 9 10 10 10 10 10 9 8 8 7 5 5 4 4 4 4 4 4 5 4 2 1 1 2 2 2 2 2 5 4 2 3 4 5
4 5 5 5 7 7 8 10 10 10 11 11 10 9 10 10 10 9 7 5 5 5 5 4 4 5 5 7 6 4 2 1 2 2 3 5 5 6 5 2 3 4 6
2 4 5 6 6 6 8 9 9 11 11 9 8 8 9 10 9 8 6 5 5 4 4 4 4 5 7 8 8 7 3 3 3 3 3 4 8 8 7 5 4 7 7
2 4 5 4 3 5 7 7 8 9 7 7 8 8 8 8 7 7 6 6 6 5 5 4 5 5 6 7 8 9 8 6 4 5 4 5 9 9 9 7 8 10 8
3 3 5 4 2 4 6 7 6 5 7 7 7 7 7 6 7 8 8 5 6 5 5 5 6 6 5 6 10 10 9 8 5 5 8 9 9 9 7 9 10 8 4
3 3 5 4 2 2 3 4 4 5 7 7 6 5 5 5 5 5 6 6 7 7 6 7 7 6 5 5 5 5 6 7 6 5 7 9 9 7 7 8 6 4 4
2 4 4 4 2 1 1 1 3 5 6 5 5 4 5 5 5 5 6 7 8 8 9 8 7 7 7 9 10 7 6 6 6 4 3 3 3 4 4 5 5 4 4
3 4 3 3 2 2 1 1 2 4 5 4 4 4 4 4 4 4 4 6 7 9 11 11 9 8 11 11 11 12 12 11 9 4 4 5 5 6 6 6 6 5 6
Wind_Direction
177 164 155 148 143 140 135 135 130 132 120 107 106 100 89 64 47 54 65 67 63 60 61 51 38 37 43 32 28 26 23 14 9 35 10 358 13 28 21 17 27 27 24
170 168 159 151 149 150 145 142 140 139 136 137 141 135 128 108 85 48 53 57 58 57 61 56 46 38 42 34 30 36 32 19 27 63 54 12 358 358 8 14 22 12 20
177 173 165 162 155 158 160 155 151 145 140 128 109 89 71 53 40 30 20 26 53 59 60 59 59 46 53 46 34 40 56 36 18 45 97 92 348 326 340 5 15 8 11
179 176 170 166 166 168 163 155 151 145 138 126 121 125 127 132 168 166 43 30 45 54 59 61 64 59 53 49 39 50 53 64 33 16 38 98 158 104 339 338 352 5 13
182 180 178 173 167 162 157 154 146 140 139 133 133 130 130 140 132 97 70 38 22 37 50 60 62 56 50 51 47 47 49 60 67 43 25 38 43 68 112 336 336 345 346
183 181 180 165 158 155 151 148 144 145 149 141 139 139 141 138 124 111 94 30 10 10 26 54 59 56 52 51 49 51 53 54 60 56 53 65 59 24 86 336 322 327 322
179 177 175 172 165 160 157 152 148 153 157 149 149 148 150 148 147 152 151 137 50 9 352 41 52 50 49 57 61 57 49 48 55 53 48 52 52 124 139 124 319 331 319
183 183 180 176 170 166 163 158 157 161 165 159 157 156 155 152 154 159 159 164 173 199 191 71 63 56 58 63 63 56 42 48 51 49 46 42 19 33 98 154 141 2 342
186 184 180 177 172 170 170 166 164 167 173 168 156 156 158 154 154 153 148 160 183 164 101 81 75 59 60 63 66 55 36 42 41 39 43 40 12 20 34 78 147 143 347
186 183 180 179 176 174 172 167 168 172 174 170 166 164 165 159 151 139 140 150 143 94 91 81 80 63 54 59 63 50 39 48 28 34 42 27 5 13 20 33 51 131 167
188 187 185 181 175 169 168 170 173 171 172 171 165 158 162 156 148 144 150 148 129 112 115 111 96 81 64 58 64 48 46 48 26 21 34 14 4 17 10 23 36 43 128
187 185 181 174 172 174 175 177 178 176 179 174 166 165 162 154 151 150 156 145 131 113 114 106 99 91 78 67 70 54 51 52 27 11 24 4 14 16 8 24 20 2 332
178 174 174 177 180 181 182 182 183 183 179 171 167 163 165 163 163 162 156 145 137 121 106 103 102 101 98 87 79 84 67 39 17 8 11 338 17 2 346 360 2 345 1
178 178 182 184 185 185 187 186 187 182 175 171 169 172 178 175 172 166 155 149 144 132 127 126 129 127 121 106 86 81 57 23 2 354 349 320 316 254 278 336 334 355 14
183 185 188 188 187 187 188 185 185 181 174 170 176 184 181 172 167 166 162 154 149 147 146 134 122 115 122 135 115 94 73 35 7 357 348 330 337 334 320 320 293 10 17
192 192 191 190 191 191 190 185 186 183 173 175 183 180 172 169 171 171 165 158 158 151 142 144 146 147 189 141 124 113 103 54 10 338 329 332 354 357 357 350 338 325 303
195 193 195 197 197 196 192 191 189 180 175 180 182 179 174 173 178 174 166 170 174 167 165 178 171 195 230 216 158 109 131 145 249 255 288 329 340 347 346 338 338 330 327
197 197 196 197 197 192 190 187 178 177 179 182 185 184 177 179 179 174 179 183 178 177 185 198 199 209 238 239 239 245 121 177 257 249 235 256 301 308 320 335 335 318 312
198 199 195 191 186 185 183 173 176 179 182 188 190 190 183 181 180 185 191 190 182 191 201 204 203 213 243 249 249 249 169 237 275 269 250 249 265 295 308 322 307 310 308
190 189 176 169 178 187 174 173 182 184 194 198 195 191 186 184 189 194 193 189 190 203 204 214 217 217 232 248 249 241 191 228 264 281 274 275 274 289 296 274 265 284 288
161 154 152 168 185 177 167 179 185 198 204 195 187 187 189 191 193 191 189 188 192 194 207 223 236 234 236 246 247 239 209 211 234 253 266 272 283 288 288 282 255 267 282
109 135 147 161 165 160 164 179 198 205 188 178 181 188 191 196 193 186 191 188 186 195 214 227 249 253 249 244 247 244 238 226 218 238 248 261 277 281 284 283 282 288 298
123 135 143 142 143 157 163 181 204 182 166 168 182 190 192 196 188 188 193 193 194 203 219 224 240 255 252 251 249 247 247 241 232 240 250 261 271 278 282 281 287 292 285
124 127 126 129 147 174 172 189 189 166 160 173 186 186 187 195 197 197 197 199 205 212 220 226 237 248 253 248 244 242 250 249 250 253 261 269 277 274 271 282 286 273 260
113 122 133 146 166 162 151 170 167 157 164 174 185 188 190 192 202 209 212 211 217 213 215 223 225 231 247 249 236 228 234 233 237 236 248 262 275 279 278 278 276 271 272
106 105 107 117 130 126 111 128 161 161 164 176 190 194 195 200 206 215 244 248 239 241 234 233 231 236 241 251 244 240 241 241 236 224 240 249 252 256 260 264 268 266 264
Height
1557 1558 1560 1561 1563 1564 1565 1565 1566 1567 1567 1567 1567 1567 1567 1566 1566 1565 1564 1564 1563 1561 1560 1559 1557 1556 1554 1553 1552 1551 1549 1548 1548 1547 1546 1546 1546 1546 1545 1545 1544 1544 1543
1555 1557 1558 1560 1561 1563 1564 1565 1566 1567 1567 1567 1567 1567 1567 1567 1566 1566 1565 1564 1563 1562 1561 1559 1558 1556 1555 1553 1552 1551 1550 1549 1548 1548 1547 1547 1548 1547 1546 1546 1545 1544 1543
1552 1554 1556 1558 1560 1562 1563 1564 1565 1566 1567 1567 1567 1567 1567 1567 1567 1566 1565 1565 1564 1562 1561 1560 1558 1557 1555 1554 1553 1552 1551 1550 1549 1549 1549 1548 1548 1547 1547 1546 1545 1545 1544
1550 1552 1554 1556 1558 1560 1562 1564 1564 1565 1566 1566 1567 1567 1567 1567 1567 1566 1566 1565 1564 1563 1562 1561 1559 1558 1556 1555 1554 1553 1552 1551 1550 1550 1549 1549 1549 1548 1547 1547 1546 1545 1544
1547 1550 1552 1554 1557 1559 1561 1562 1563 1564 1565 1566 1566 1566 1566 1567 1566 1566 1566 1565 1564 1563 1562 1561 1560 1559 1557 1556 1555 1554 1553 1552 1551 1550 1550 1549 1549 1548 1548 1547 1546 1545 1545
1544 1547 1550 1553 1555 1557 1559 1561 1562 1563 1564 1565 1565 1566 1566 1566 1566 1566 1566 1565 1565 1564 1563 1562 1561 1559 1558 1557 1556 1554 1553 1552 1552 1551 1550 1549 1549 1548 1548 1547 1545 1544 1544
1541 1544 1547 1550 1552 1555 1557 1559 1561 1562 1563 1564 1565 1565 1565 1566 1566 1566 1565 1565 1564 1564 1563 1562 1561 1560 1558 1557 1556 1555 1554 1553 1552 1551 1550 1550 1549 1548 1548 1547 1545 1544 1544
1538 1541 1544 1547 1549 1552 1555 1557 1559 1560 1562 1563 1564 1564 1565 1565 1565 1565 1565 1565 1564 1564 1563 1562 1561 1560 1559 1558 1556 1555 1554 1553 1552 1551 1551 1550 1549 1548 1547 1546 1545 1544 1543
1534 1537 1541 1544 1547 1550 1552 1555 1557 1559 1560 1562 1563 1563 1564 1564 1564 1564 1564 1564 1564 1563 1563 1562 1561 1560 1559 1558 1557 1555 1554 1553 1552 1552 1551 1550 1548 1547 1546 1546 1545 1545 1542
1532 1535 1538 1541 1544 1547 1550 1553 1555 1557 1559 1560 1561 1562 1563 1563 1563 1564 1563 1563 1563 1563 1562 1561 1561 1560 1559 1558 1556 1555 1554 1553 1552 1551 1550 1549 1548 1547 1546 1545 1544 1543 1542
1529 1532 1535 1539 1542 1545 1548 1551 1553 1555 1557 1558 1560 1561 1561 1562 1562 1563 1563 1562 1562 1562 1561 1561 1560 1559 1558 1557 1556 1555 1554 1553 1552 1551 1550 1548 1547 1546 1545 1544 1543 1542 1541
1526 1529 1533 1536 1540 1542 1545 1548 1551 1553 1555 1556 1558 1559 1560 1560 1561 1561 1561 1561 1561 1561 1560 1560 1559 1558 1557 1556 1555 1554 1553 1552 1551 1550 1549 1548 1546 1545 1544 1543 1542 1541 1540
1524 1527 1530 1533 1536 1539 1542 1545 1548 1550 1552 1554 1555 1557 1558 1558 1559 1559 1559 1560 1560 1559 1559 1559 1558 1557 1556 1555 1554 1553 1552 1551 1550 1549 1548 1547 1545 1544 1543 1542 1541 1540 1539
1522 1525 1527 1530 1534 1537 1540 1542 1545 1548 1550 1551 1553 1554 1555 1556 1557 1557 1558 1558 1558 1558 1558 1557 1556 1556 1555 1554 1553 1552 1551 1550 1549 1548 1547 1546 1544 1543 1542 1540 1539 1538 1537
1520 1522 1525 1528 1531 1534 1537 1540 1542 1545 1547 1549 1550 1552 1553 1554 1555 1555 1556 1556 1556 1556 1556 1555 1555 1554 1554 1553 1552 1551 1549 1548 1548 1547 1546 1544 1543 1542 1540 1539 1538 1536 1535
1518 1520 1523 1525 1528 1531 1534 1536 1539 1541 1544 1545 1547 1549 1551 1552 1552 1553 1554 1554 1554 1554 1554 1553 1553 1552 1552 1551 1550 1549 1548 1547 1546 1545 1544 1543 1542 1540 1539 1537 1536 1535 1533
1516 1518 1520 1522 1525 1527 1530 1533 1536 1539 1541 1542 1544 1546 1548 1549 1550 1551 1551 1551 1551 1552 1552 1551 1551 1550 1550 1549 1548 1547 1546 1545 1544 1543 1542 1541 1540 1539 1537 1535 1534 1533 1531
1513 1515 1518 1520 1522 1525 1527 1530 1533 1535 1537 1539 1541 1543 1544 1546 1547 1548 1548 1549 1549 1549 1549 1549 1549 1548 1548 1547 1546 1545 1544 1543 1542 1541 1540 1539 1538 1536 1535 1533 1532 1530 1529
1511 1513 1515 1517 1520 1522 1525 1527 1530 1532 1534 1535 1537 1539 1541 1542 1543 1544 1545 1546 1546 1546 1546 1546 1546 1546 1545 1545 1544 1543 1542 1541 1540 1539 1538 1536 1535 1534 1532 1531 1529 1527 1526
1510 1511 1513 1515 1518 1520 1522 1524 1526 1528 1530 1532 1534 1536 1537 1539 1540 1541 1542 1542 1543 1543 1543 1543 1543 1543 1542 1542 1541 1540 1539 1538 1536 1536 1534 1533 1532 1530 1529 1527 1525 1523 1522
1508 1510 1512 1513 1515 1517 1519 1521 1523 1525 1527 1529 1531 1533 1534 1535 1536 1537 1538 1539 1539 1540 1540 1540 1540 1539 1539 1538 1538 1537 1535 1534 1533 1532 1531 1530 1528 1527 1525 1524 1522 1520 1518
1507 1508 1510 1512 1514 1515 1517 1518 1520 1522 1524 1526 1527 1529 1530 1532 1532 1533 1534 1535 1535 1536 1536 1536 1535 1535 1535 1534 1533 1533 1532 1530 1529 1528 1527 1525 1524 1523 1521 1519 1517 1516 1514
1505 1507 1508 1510 1512 1513 1515 1516 1517 1519 1521 1522 1524 1525 1527 1528 1528 1529 1530 1530 1531 1531 1531 1531 1531 1530 1530 1530 1529 1528 1527 1526 1524 1523 1522 1521 1519 1518 1516 1515 1513 1511 1509
1504 1506 1507 1508 1510 1511 1513 1514 1515 1517 1518 1519 1520 1521 1522 1523 1524 1525 1525 1526 1526 1526 1526 1526 1526 1526 1525 1525 1524 1523 1522 1521 1519 1518 1517 1516 1514 1513 1511 1510 1508 1506 1504
1503 1504 1506 1507 1508 1509 1510 1511 1513 1514 1515 1516 1517 1518 1518 1519 1519 1520 1521 1521 1521 1522 1521 1521 1521 1520 1519 1519 1519 1518 1516 1515 1514 1512 1511 1510 1508 1507 1505 1504 1502 1500 1499
1502 1503 1504 1505 1506 1507 1508 1509 1510 1511 1512 1512 1513 1514 1514 1515 1515 1515 1516 1516 1516 1516 1516 1516 1516 1515 1515 1514 1513 1512 1511 1510 1509 1507 1505 1503 1502 1500 1499 1497 1495 1494 1492